Tracking 18851 objects as of 25-Nov-2017
HD Live streaming from Space Station
objects crossing your sky now

FENGYUN 1C DEB

Track FENGYUN 1C DEB now!
10-day predictions


NORAD ID: 29991
Int'l Code: 1999-025LR
Perigee: 799.9 km
Apogee: 813.9 km
Inclination: 102.2 °
Period: 100.9 minutes
Semi major axis: 7177 km
RCS: 0.1137 m2 (medium)
Launch date: May 10, 1999
Source: People's Republic of China (PRC)
Launch site: Taiyaun Space Center, China (TSC)

Note: This is SATELLITE DEBRIS
aabbcc
Your satellite tracking list
Your tracking list is empty




NASA's NSSDC Master Catalog

Two Line Element Set (TLE):
1 29991U 99025LR  17328.76685943 +.00001749 +00000-0 +74070-3 0  9996
2 29991 102.2081 027.0739 0009754 235.2055 240.9469 14.27593558561602
Source of the keplerian elements: AFSPC